Location: Zapote
(9.9191°N, 84.0597°W)
Time: 04:11:14
(UTC-06:00)

Envisat - Pass Details

Date: 30 January 2021
Orbit: 764 x 766 km, 98.1° (Epoch: 09 March)

Event Time Altitude Azimuth Distance (km) Brightness Sun altitude
Rises 04:00:09 0° 42° (NE) 3,219 6.6 -28.9°
Reaches altitude 10° 04:03:25 10° 65° (ENE) 2,293 6.1 -28.1°
Maximum altitude 04:06:17 15° 100° (E) 1,955 6.0 -27.5°
Drops below altitude 10° 04:09:08 10° 135° (SE) 2,293 6.2 -26.8°
Sets 04:12:24 0° 157° (SSE) 3,219 6.7 -26.0°
